| time (UTC) | temp F | wind direction | speed MPH | gust MPH | rain 1hr in | rain 24hr in | rain mn in | humidity % | barometer mb |
| 20260505210039 | 75 | 38 | 0.0 | 6.0 | 0.00 | 0.00 | 0.00 | 35 | 931.2 |
| 20260505204542 | 75 | 55 | 0.0 | 4.0 | 0.00 | 0.00 | 0.00 | 37 | 931.3 |
| 20260505203037 | 75 | 352 | 0.0 | 4.0 | 0.00 | 0.00 | 0.00 | 37 | 931.4 |
| 20260505201536 | 74 | 32 | 0.0 | 1.0 | 0.00 | 0.00 | 0.00 | 38 | 931.5 |
| 20260505200041 | 74 | 336 | 0.0 | 1.0 | 0.00 | 0.00 | 0.00 | 38 | 931.6 |
| 20260505194532 | 73 | 309 | 0.0 | 2.0 | 0.00 | 0.00 | 0.00 | 38 | 931.6 |
| 20260505193029 | 73 | 23 | 0.0 | 1.0 | 0.00 | 0.00 | 0.00 | 40 | 931.7 |
| 20260505191528 | 72 | 53 | 0.0 | 1.0 | 0.00 | 0.00 | 0.00 | 41 | 931.8 |
| 20260505190033 | 71 | 295 | 0.0 | 2.0 | 0.00 | 0.00 | 0.00 | 44 | 931.9 |
| 20260505184523 | 70 | 27 | 0.0 | 1.0 | 0.00 | 0.00 | 0.00 | 45 | 931.8 |
| 20260505183020 | 69 | 13 | 0.0 | 1.0 | 0.00 | 0.00 | 0.00 | 47 | 931.9 |
| 20260505181520 | 68 | 320 | 0.0 | 0.0 | 0.00 | 0.00 | 0.00 | 48 | 931.8 |
| 20260505180016 | 67 | 117 | 0.0 | 0.0 | 0.00 | 0.00 | 0.00 | 49 | 931.7 |
| 20260505174514 | 66 | 303 | 0.0 | 0.0 | 0.00 | 0.00 | 0.00 | 50 | 931.8 |
| 20260505173012 | 66 | 55 | 0.0 | 0.0 | 0.00 | 0.00 | 0.00 | 51 | 931.8 |
| 20260505171518 | 65 | 285 | 0.0 | 0.0 | 0.00 | 0.00 | 0.00 | 51 | 931.8 |
| 20260505170014 | 65 | 291 | 0.0 | 0.0 | 0.00 | 0.00 | 0.00 | 55 | 931.7 |
| 20260505164506 | 64 | 107 | 0.0 | 0.0 | 0.00 | 0.00 | 0.00 | 56 | 931.8 |
| 20260505163007 | 64 | 18 | 0.0 | 0.0 | 0.00 | 0.00 | 0.00 | 57 | 931.7 |
| 20260505161502 | 63 | 148 | 0.0 | 0.0 | 0.00 | 0.00 | 0.00 | 59 | 931.7 |
| 20260505153055 | 60 | 101 | 0.0 | 0.0 | 0.00 | 0.00 | 0.00 | 66 | 931.8 |
| 20260505151551 | 58 | 110 | 0.0 | 0.0 | 0.00 | 0.00 | 0.00 | 67 | 931.7 |
| 20260505124515 | 0 | 0.0 | 0.0 | 0.00 | 0.00 | 0.00 | 930.6 | ||
| 20260505123012 | 0 | 0.0 | 0.0 | 0.00 | 0.00 | 0.00 | 930.5 | ||
| 20260505121509 | 0 | 0.0 | 0.0 | 0.00 | 0.00 | 0.00 | 930.5 | ||
| 20260505120007 | 50 | 156 | 0.0 | 0.0 | 0.00 | 0.00 | 0.00 | 80 | 930.4 |
| 20260505114503 | 50 | 139 | 0.0 | 0.0 | 0.00 | 0.00 | 0.00 | 80 | 930.4 |
| 20260505113002 | 52 | 139 | 0.0 | 0.0 | 0.00 | 0.00 | 0.00 | 78 | 930.2 |
| 20260505111505 | 53 | 105 | 0.0 | 0.0 | 0.00 | 0.00 | 0.00 | 77 | 930.3 |
| 20260505110120 | 52 | 103 | 0.0 | 0.0 | 0.00 | 0.00 | 0.00 | 79 | 930.2 |
| 20260505101602 | 53 | 139 | 0.0 | 0.0 | 0.00 | 0.00 | 0.00 | 75 | 930.0 |
| 20260505100058 | 52 | 92 | 0.0 | 0.0 | 0.00 | 0.00 | 0.00 | 77 | 930.1 |
| 20260505094556 | 52 | 117 | 0.0 | 0.0 | 0.00 | 0.00 | 0.00 | 76 | 930.1 |
| 20260505093053 | 53 | 131 | 0.0 | 0.0 | 0.00 | 0.00 | 0.00 | 73 | 930.0 |
| 20260505091554 | 53 | 101 | 0.0 | 0.0 | 0.00 | 0.00 | 0.00 | 74 | 930.0 |
| 20260505090050 | 53 | 110 | 0.0 | 0.0 | 0.00 | 0.00 | 0.00 | 72 | 930.1 |
| 20260505084550 | 54 | 84 | 0.0 | 0.0 | 0.00 | 0.00 | 0.00 | 70 | 930.0 |
| 20260505083050 | 54 | 79 | 0.0 | 0.0 | 0.00 | 0.00 | 0.00 | 68 | 930.0 |
| 20260505081553 | 55 | 89 | 0.0 | 0.0 | 0.00 | 0.00 | 0.00 | 66 | 930.1 |
| 20260505080049 | 55 | 75 | 0.0 | 0.0 | 0.00 | 0.00 | 0.00 | 63 | 930.0 |
| 20260505074547 | 56 | 65 | 0.0 | 0.0 | 0.00 | 0.00 | 0.00 | 58 | 930.0 |
| 20260505073049 | 56 | 76 | 0.0 | 0.0 | 0.00 | 0.00 | 0.00 | 55 | 930.0 |
| 20260505071552 | 57 | 77 | 0.0 | 0.0 | 0.00 | 0.00 | 0.00 | 52 | 929.8 |
| 20260505070045 | 57 | 85 | 0.0 | 0.0 | 0.00 | 0.00 | 0.00 | 49 | 929.7 |
| 20260505064544 | 57 | 67 | 0.0 | 0.0 | 0.00 | 0.00 | 0.00 | 46 | 929.6 |
| 20260505063044 | 57 | 62 | 0.0 | 0.0 | 0.00 | 0.00 | 0.00 | 44 | 929.6 |
| 20260505061543 | 58 | 51 | 0.0 | 1.0 | 0.00 | 0.00 | 0.00 | 41 | 929.7 |
| 20260505060044 | 60 | 68 | 0.0 | 1.0 | 0.00 | 0.00 | 0.00 | 38 | 929.6 |
| 20260505054552 | 60 | 71 | 0.0 | 1.0 | 0.00 | 0.00 | 0.00 | 37 | 929.7 |
| 20260505053054 | 60 | 68 | 0.0 | 0.0 | 0.00 | 0.00 | 0.00 | 37 | 929.6 |
| 20260505051544 | 58 | 96 | 0.0 | 0.0 | 0.00 | 0.00 | 0.00 | 41 | 929.6 |
| 20260505041542 | 62 | 109 | 0.0 | 0.0 | 0.00 | 0.00 | 0.00 | 36 | 929.0 |
| 20260505040043 | 63 | 8 | 0.0 | 1.0 | 0.00 | 0.00 | 0.00 | 34 | 928.7 |
| 20260505034540 | 64 | 18 | 0.0 | 1.0 | 0.00 | 0.00 | 0.00 | 33 | 928.4 |
| 20260505033045 | 66 | 269 | 0.0 | 0.0 | 0.00 | 0.00 | 0.00 | 30 | 928.1 |
| 20260505031541 | 68 | 297 | 0.0 | 1.0 | 0.00 | 0.00 | 0.00 | 27 | 928.0 |
| 20260505030040 | 70 | 303 | 0.0 | 3.0 | 0.00 | 0.00 | 0.00 | 25 | 927.7 |
| 20260505024539 | 71 | 305 | 0.0 | 3.0 | 0.00 | 0.00 | 0.00 | 23 | 927.5 |
| 20260505023042 | 72 | 313 | 1.0 | 10.0 | 0.00 | 0.00 | 0.00 | 23 | 927.4 |
| 20260505021540 | 74 | 313 | 0.0 | 9.0 | 0.00 | 0.00 | 0.00 | 22 | 927.3 |
| 20260505020039 | 75 | 303 | 3.0 | 13.0 | 0.00 | 0.00 | 0.00 | 20 | 927.4 |
| 20260505014538 | 77 | 277 | 3.0 | 10.0 | 0.00 | 0.00 | 0.00 | 21 | 927.3 |
| 20260505013038 | 77 | 298 | 3.0 | 7.0 | 0.00 | 0.00 | 0.00 | 22 | 927.3 |
| 20260505011548 | 78 | 314 | 3.0 | 10.0 | 0.00 | 0.00 | 0.00 | 22 | 927.3 |
| 20260505010038 | 79 | 276 | 3.0 | 12.0 | 0.00 | 0.00 | 0.00 | 24 | 927.2 |
| 20260505004536 | 80 | 326 | 1.0 | 10.0 | 0.00 | 0.00 | 0.00 | 24 | 927.4 |
| 20260505003034 | 80 | 325 | 5.0 | 22.0 | 0.00 | 0.00 | 0.00 | 23 | 927.3 |
| 20260505001534 | 80 | 281 | 1.0 | 13.0 | 0.00 | 0.00 | 0.00 | 24 | 927.2 |
| 20260505000034 | 81 | 336 | 1.0 | 14.0 | 0.00 | 0.00 | 0.00 | 25 | 927.3 |
| 20260504234531 | 80 | 349 | 2.0 | 12.0 | 0.00 | 0.00 | 0.00 | 25 | 927.3 |
| 20260504233032 | 79 | 322 | 3.0 | 14.0 | 0.00 | 0.00 | 0.00 | 26 | 927.4 |
| 20260504231531 | 80 | 335 | 7.0 | 14.0 | 0.00 | 0.00 | 0.00 | 25 | 927.5 |
| 20260504230030 | 81 | 338 | 8.0 | 17.0 | 0.00 | 0.00 | 0.00 | 23 | 927.5 |
| 20260504224529 | 81 | 288 | 1.0 | 16.0 | 0.00 | 0.00 | 0.00 | 22 | 927.6 |
| 20260504223029 | 81 | 309 | 6.0 | 14.0 | 0.00 | 0.00 | 0.00 | 22 | 927.7 |
| 20260504221528 | 80 | 323 | 2.0 | 13.0 | 0.00 | 0.00 | 0.00 | 22 | 927.9 |
| 20260504220026 | 80 | 293 | 1.0 | 14.0 | 0.00 | 0.00 | 0.00 | 21 | 927.9 |
| 20260504214524 | 81 | 290 | 7.0 | 12.0 | 0.00 | 0.00 | 0.00 | 20 | 928.2 |
| 20260504213024 | 81 | 283 | 3.0 | 13.0 | 0.00 | 0.00 | 0.00 | 22 | 928.2 |
| 20260504211521 | 80 | 328 | 2.0 | 12.0 | 0.00 | 0.00 | 0.00 | 25 | 928.3 |